EW3084 Weather Reports


Display with metric or nautical units.
time (UTC)temp
F
wind
direction
speed
MPH
gust
MPH
rain 1hr
in
rain 24hr
in
rain mn
in
humidity
%
barometer
mb
20260904034503 44 0 0.0 0.0 0.00 0.00 0.00 100
20260904033603 44 0 0.0 0.0 0.00 0.00 0.00 100
20260904032918 44 0 0.0 0.0 0.00 0.00 0.00 100
20260904031803 44 305 0.0 2.0 0.00 0.00 0.00 100
20260904030903 44 305 0.0 2.0 0.00 0.00 0.00 100
20260904030003 43 305 0.0 2.0 0.00 0.00 0.00 100
20260904025403 43 0 0.0 0.0 0.00 0.00 0.00 100
20260904024719 43 0 0.0 0.0 0.00 0.00 0.00 100
20260904023603 43 0 0.0 0.0 0.00 0.00 0.00 100
20260904022703 43 0 0.0 0.0 0.00 0.00 0.00 100
20260904021803 43 0 0.0 0.0 0.00 0.00 0.00 100
20260904020903 43 0 0.0 0.0 0.00 0.00 0.00 100
20260904020003 43 0 0.0 0.0 0.00 0.00 0.00 100
20260904015403 43 0 0.0 0.0 0.00 0.00 0.00 100
20260904014503 43 0 0.0 0.0 0.00 0.00 0.00 100
20260904013603 44 0 0.0 0.0 0.00 0.00 0.00 100
20260904012917 44 0 0.0 0.0 0.00 0.00 0.00 100
20260904011803 45 0 0.0 0.0 0.00 0.00 0.00 100
20260904010903 45 0 0.0 0.0 0.00 0.00 0.00 100
20260904010003 45 0 0.0 0.0 0.00 0.00 0.00 100
20260904005403 45 0 0.0 0.0 0.00 0.00 0.00 100
20260904004503 45 0 0.0 0.0 0.00 0.00 0.00 100
20260904003603 46 0 0.0 0.0 0.00 0.00 0.00 100
20260904002703 46 0 0.0 0.0 0.00 0.00 0.00 100
20260904001803 47 0 0.0 0.0 0.00 0.00 0.00 100
20260904000903 47 305 0.0 1.0 0.00 0.00 0.00 100
20260904000219 47 305 0.0 1.0 0.00 0.00 0.00 100
20260903235618 47 305 0.0 3.0 0.00 0.00 0.00 100
20260903234503 47 305 0.0 2.0 0.00 0.00 0.00 100
20260903233603 48 0 0.0 0.0 0.00 0.00 0.00 100
20260903232703 47 0 0.0 0.0 0.00 0.00 0.00 99
20260903231803 47 0 0.0 0.0 0.00 0.00 0.00 99
20260903230903 48 0 0.0 0.0 0.00 0.00 0.00 96
20260903230003 48 0 0.0 0.0 0.00 0.00 0.00 96
20260903225403 48 0 0.0 0.0 0.00 0.00 0.00 95
20260903224503 49 305 0.0 1.0 0.00 0.00 0.00 96
20260903223603 49 305 0.0 2.0 0.00 0.00 0.00 95
20260903222703 49 305 0.0 2.0 0.00 0.00 0.00 91
20260903221803 49 305 0.0 3.0 0.00 0.00 0.00 91
20260903220903 49 305 0.0 3.0 0.00 0.00 0.00 89
20260903220003 49 0 0.0 0.0 0.00 0.00 0.00 87
20260903215403 50 305 0.0 1.0 0.00 0.00 0.00 86
20260903214503 50 305 0.0 2.0 0.00 0.00 0.00 86
20260903213603 50 304 0.0 2.0 0.00 0.00 0.00 86
20260903212916 50 303 0.0 3.0 0.00 0.00 0.00 86
20260903211803 50 0 0.0 0.0 0.00 0.00 0.00 85
20260903211118 50 0 0.0 0.0 0.00 0.00 0.00 84
20260903210003 51 303 0.0 2.0 0.00 0.00 0.00 84
20260903205403 51 303 0.0 2.0 0.00 0.00 0.00 83
20260903204503 51 303 0.0 3.0 0.00 0.00 0.00 82
20260903203603 51 302 0.0 3.0 0.00 0.00 0.00 82
20260903202703 51 305 0.0 2.0 0.00 0.00 0.00 81
20260903201803 52 304 0.0 1.0 0.00 0.00 0.00 81
20260903200903 52 304 0.0 4.0 0.00 0.00 0.00 81
20260903200003 52 304 0.0 3.0 0.00 0.00 0.00 81
20260903195403 52 304 0.0 1.0 0.00 0.00 0.00 80
20260903194716 52 304 0.0 1.0 0.00 0.00 0.00 79
20260903193603 53 304 0.0 2.0 0.00 0.00 0.00 78
20260903192703 53 301 1.0 3.0 0.00 0.00 0.00 77
20260903191803 53 300 1.0 3.0 0.00 0.00 0.00 77
20260903191118 53 302 1.0 4.0 0.00 0.00 0.00 76
20260903190003 53 299 2.0 4.0 0.00 0.00 0.00 76
20260903185616 54 299 1.0 4.0 0.00 0.00 0.00 76
20260903184716 54 290 1.0 3.0 0.00 0.00 0.00 75
20260903183603 54 276 0.0 3.0 0.00 0.00 0.00 74
20260903182703 54 276 1.0 3.0 0.00 0.00 0.00 74
20260903181803 54 276 0.0 3.0 0.00 0.00 0.00 72
20260903180903 55 276 0.0 1.0 0.00 0.00 0.00 70
20260903180003 56 0 0.0 0.0 0.00 0.00 0.00 68
20260903175403 57 276 0.0 1.0 0.00 0.00 0.00 67
20260903174503 58 276 0.0 1.0 0.00 0.00 0.00 65
20260903173603 59 276 0.0 2.0 0.00 0.00 0.00 64
20260903172703 59 276 0.0 3.0 0.00 0.00 0.00 61
20260903171803 60 278 2.0 5.0 0.00 0.00 0.00 59
20260903171117 60 268 3.0 6.0 0.00 0.00 0.00 58
20260903170003 61 275 4.0 7.0 0.00 0.00 0.00 56
20260903165403 61 269 4.0 7.0 0.00 0.00 0.00 56
20260903164503 62 280 3.0 10.0 0.00 0.00 0.00 55
20260903163603 62 275 2.0 6.0 0.00 0.00 0.00 55
20260903162703 62 271 3.0 9.0 0.00 0.00 0.00 54
20260903162017 63 279 4.0 9.0 0.00 0.00 0.00 53
20260903160903 63 276 3.0 10.0 0.00 0.00 0.00 53
20260903160003 63 273 4.0 10.0 0.00 0.00 0.00 53
20260903155403 63 259 3.0 9.0 0.00 0.00 0.00 53
20260903154503 63 285 5.0 11.0 0.00 0.00 0.00 53
20260903153603 63 272 4.0 11.0 0.00 0.00 0.00 54
20260903152917 63 267 5.0 11.0 0.00 0.00 0.00 54
20260903151803 63 275 5.0 11.0 0.00 0.00 0.00 53
20260903150903 63 271 4.0 10.0 0.00 0.00 0.00 53
20260903150215 63 283 6.0 13.0 0.00 0.00 0.00 53
20260903145403 63 279 5.0 12.0 0.00 0.00 0.00 53
20260903144503 63 275 7.0 14.0 0.00 0.00 0.00 53
20260903143603 63 277 6.0 13.0 0.00 0.00 0.00 53
20260903142703 63 270 7.0 15.0 0.00 0.00 0.00 54
20260903142016 63 270 7.0 13.0 0.00 0.00 0.00 53
20260903140903 63 267 9.0 16.0 0.00 0.00 0.00 54
20260903140219 63 275 9.0 15.0 0.00 0.00 0.00 54
20260903135403 63 282 6.0 16.0 0.00 0.00 0.00 55
20260903134503 63 264 8.0 13.0 0.00 0.00 0.00 55
20260903133603 63 274 7.0 16.0 0.00 0.00 0.00 54
20260903132703 63 282 8.0 15.0 0.00 0.00 0.00 54
20260903131803 64 270 6.0 16.0 0.00 0.00 0.00 51
20260903130903 64 275 7.0 16.0 0.00 0.00 0.00 53
20260903130003 64 279 7.0 14.0 0.00 0.00 0.00 53
20260903125403 63 276 8.0 16.0 0.00 0.00 0.00 53
20260903124503 63 278 8.0 18.0 0.00 0.00 0.00 52
20260903123603 63 277 7.0 15.0 0.00 0.00 0.00 50
20260903122703 63 277 8.0 16.0 0.00 0.00 0.00 47
20260903121803 62 281 9.0 16.0 0.00 0.00 0.00 49
20260903120903 63 286 7.0 16.0 0.00 0.00 0.00 48
20260903120003 63 267 6.0 15.0 0.00 0.00 0.00 50
20260903115403 63 268 5.0 15.0 0.00 0.00 0.00 50
20260903114503 62 270 6.0 17.0 0.00 0.00 0.00 51
20260903113603 62 264 7.0 14.0 0.00 0.00 0.00 51
20260903112703 62 270 9.0 16.0 0.00 0.00 0.00 51
20260903111803 62 268 5.0 14.0 0.00 0.00 0.00 53
20260903111119 62 287 6.0 12.0 0.00 0.00 0.00 52
20260903110003 62 275 6.0 17.0 0.00 0.00 0.00 51
20260903105403 61 271 7.0 14.0 0.00 0.00 0.00 51
20260903104503 62 279 6.0 13.0 0.00 0.00 0.00 53
20260903103603 62 263 6.0 15.0 0.00 0.00 0.00 50
20260903102703 61 272 7.0 15.0 0.00 0.00 0.00 52
20260903101803 61 272 5.0 11.0 0.00 0.00 0.00 52
20260903100903 61 266 4.0 11.0 0.00 0.00 0.00 55
20260903100003 60 275 6.0 16.0 0.00 0.00 0.00 56
20260903095403 60 280 6.0 15.0 0.00 0.00 0.00 55
20260903094503 61 268 6.0 13.0 0.00 0.00 0.00 55
20260903093603 60 277 5.0 13.0 0.00 0.00 0.00 56
20260903092703 60 272 6.0 16.0 0.00 0.00 0.00 57
20260903091803 59 286 6.0 16.0 0.00 0.00 0.00 58
20260903090903 59 282 7.0 15.0 0.00 0.00 0.00 58
20260903090217 59 278 7.0 17.0 0.00 0.00 0.00 58
20260903085403 58 279 8.0 16.0 0.00 0.00 0.00 57
20260903084503 58 269 6.0 13.0 0.00 0.01 0.00 58
20260903083603 58 279 4.0 15.0 0.00 0.02 0.00 60
20260903082703 57 285 7.0 15.0 0.00 0.02 0.00 62
20260903081803 57 282 7.0 16.0 0.00 0.02 0.00 62
20260903080903 57 275 6.0 13.0 0.00 0.02 0.00 63
20260903080003 56 276 7.0 15.0 0.00 0.02 0.00 64
20260903075403 56 265 7.0 15.0 0.00 0.02 0.00 63
20260903074503 55 281 6.0 13.0 0.00 0.02 0.00 64
20260903073603 55 292 6.0 14.0 0.00 0.02 0.00 65
20260903072703 54 274 7.0 17.0 0.00 0.02 0.00 68
20260903071803 54 297 4.0 17.0 0.00 0.02 0.00 71
20260903070903 54 276 8.0 18.0 0.00 0.02 0.00 71
20260903070003 53 262 9.0 18.0 0.00 0.02 0.00 72
20260903065403 53 269 7.0 17.0 0.00 0.02 0.00 73
20260903064503 53 267 6.0 14.0 0.00 0.02 0.00 75
20260903063603 52 278 7.0 17.0 0.00 0.02 0.00 76
20260903062703 52 267 6.0 17.0 0.00 0.02 0.00 77
20260903061803 52 275 5.0 16.0 0.00 0.02 0.00 78
20260903060903 51 271 5.0 16.0 0.00 0.02 0.00 79
20260903060003 51 273 4.0 12.0 0.00 0.02 0.00 82
20260903055403 51 266 4.0 12.0 0.00 0.02 0.00 83
20260903054503 50 261 2.0 9.0 0.00 0.02 0.00 85
20260903053603 50 266 2.0 8.0 0.00 0.02 0.00 86
20260903052703 50 269 3.0 11.0 0.00 0.02 0.00 88
20260903051803 50 263 2.0 10.0 0.00 0.02 0.00 90
20260903050903 49 263 2.0 10.0 0.00 0.02 0.00 92
20260903050003 49 274 1.0 9.0 0.00 0.02 0.00 99
20260903045403 49 294 0.0 4.0 0.00 0.02 0.00 100
20260903044503 49 284 0.0 3.0 0.00 0.02 0.00 100
20260903043603 49 269 1.0 7.0 0.00 0.02 0.00 100
20260903042703 50 279 1.0 4.0 0.00 0.02 0.00 100
20260903042017 50 273 2.0 9.0 0.00 0.02 0.00 100
20260903040903 50 265 1.0 7.0 0.00 0.02 0.00 100
20260903040003 50 269 2.0 7.0 0.00 0.02 0.00 100
20260903035403 50 269 1.0 7.0 0.00 0.02 0.00 100